Regional Weather Roundup
Issued by NWS State College, PA

Home | Current Version | Previous Version | Text Only | Print | Product List | Glossary On
Versions: 1 2 3 4 5 6 7 8 9 10 11 12 13 14 15 16 17 18 19 20 21 22 23 24 25 26 27 28 29 30 31 32 33 34 35 36 37 38 39 40 41 42 43 44 45 46 47 48 49 50
000
ASUS41 KCTP 231310
RWRCTP

REGIONAL WEATHER ROUNDUP
NATIONAL WEATHER SERVICE STATE COLLEGE PA
800 AM EST FRI FEB 23 2018

Note: "fair" indicates few or no clouds below 12,000 feet with no
significant weather and/or obstructions to visibility.

* = STATION THAT DOES NOT REPORT PRECIPITATION /E.G. RAIN...SNOW...ETC/
    THUNDER OR FOG.

PAZ002>004-007>009-013>016-020>023-029>032-231400-
WESTERN PENNSYLVANIA

CITY           SKY/WX    TMP DP  RH WIND       PRES   REMARKS
ERIE           FAIR      44  40  85 SE15      30.24F
MEADVILLE      CLOUDY    39  39 100 SE6       30.28F FOG
FRANKLIN*      LGT RAIN  39  39 100 E7        30.32R FOG
NEW CASTLE     LGT RAIN  43  43 100 VRB3      30.28F
BEAVER COUNTY  DRZL/FOG  41  41 100 SE9       30.28F VSB 3/4
BUTLER*        LGT RAIN  42  41  96 SE8       30.32F
PITTSBURGH INT LGT RAIN  44  43  96 SE8       30.28F FOG
PITTSBURGH     CLOUDY    45  41  86 SE6       30.31F
INDIANA*       CLOUDY    43  41  93 VRB7G17   30.39S
LATROBE        CLOUDY    48  45  87 CALM      30.35R
WASHINGTON CO* NOT AVBL
$$

PAZ004>006-010>012-017>019-024>028-033>037-041-042-045-046-049>053-231400-
CENTRAL PENNSYLVANIA

CITY           SKY/WX    TMP DP  RH WIND       PRES   REMARKS
BRADFORD       CLOUDY    35  34  96 SE10      30.35R FOG
DUBOIS         FOG       37  34  89 SE14G23   30.34F VSB 3/4
CLEARFIELD     LGT RAIN  36  36 100 E6        30.43R FOG
JOHNSTOWN      CLOUDY    36  34  92 S12       30.39R
ALTOONA        CLOUDY    37  35  92 S8        30.47R
STATE COLLEGE  CLOUDY    36  34  93 S6        30.49R
WILLIAMSPORT   CLOUDY    37  35  92 E12G20    30.53S FOG
SELINSGROVE    CLOUDY    37  34  89 S6        30.57R
FT INDIANTOWN  LGT RAIN  37  37 100 CALM      30.58F FOG
CAPITAL CITY   LGT RAIN  40  37  89 SE13      30.57F
HARRISBURG     LGT RAIN  39  36  89 SE9       30.58R FOG
YORK           LGT RAIN  38  38 100 SE5       30.58R FOG
$$

PAZ038>040-043-044-047-048-054-055-060>062-067>071-231400-
EASTERN PENNSYLVANIA

CITY           SKY/WX    TMP DP  RH WIND       PRES   REMARKS
SCRANTON       LGT RAIN  35  33  92 CALM      30.56R FOG
MOUNT POCONO   FRZ RAIN  29  29 100 E9        30.53R VSB 3/4
ALLENTOWN      MIX PCPN  37  33  85 E5        30.62R
QUAKERTOWN*    CLOUDY    36  34  93 CALM      30.61R
READING        LGT RAIN  38  37  97 SE5       30.59R
LANCASTER      RAIN      38  35  89 SE9       30.59S FOG
COATESVILLE    MIX PCPN  36  34  93 E9        30.60R
POTTSTOWN      LGT RAIN  36  35  96 E6        30.62R FOG
BLUE BELL      CLOUDY    36  34  93 E5        30.63R
DOYLESTOWN     CLOUDY    36  34  92 CALM      30.61R
WILLOW GROVE   NOT AVBL
NORTH PHILA    CLOUDY    39  35  86 NE8       30.63R
PHILADELPHIA   LGT RAIN  38  35  89 NE5       30.62R
$$



USA.gov is the U.S. government's official web portal to all federal, state and local government web resources and services.